sat.trackr.live / text

‹ back to catalog

ASIASAT 7

NORAD 37933 · 2011-069A

PAYLOAD ACTIVE UNKNOWN

§ Identity

Operator
Country
AC
Launch date
2011-11-25
Launch site
TYMSC
Launch vehicle
Mass (kg)
RCS (m²)
45.07

Purposes: comms

External: N2YO · Heavens-Above · Gunter

§ Orbital elements

Epoch: 2026-05-25T00:49:21.410112Z

Period
1,436.12 min
Inclination
0.0315°
Eccentricity
0.0001519
Mean motion
1.00270061 rev/d
Perigee alt
35,780.7 km
Apogee alt
35,793.5 km
Semi-major
42,165.2 km
B*
0.0000e+0
RAAN
269.5791°
Arg perigee
141.8444°
Mean anomaly
309.0515°
Rev number
4,462

§ Raw data

ASIASAT 71 37933U 11069A   26145.03427558 -.00000336  00000+0  00000+0 0  99952 37933   0.0315 269.5791 0001519 141.8444 309.0515  1.00270061 44623

JSON: /api/v1/satellites/37933 · /tle

For live sub-satellite position, see the globe view (requires WebGL).

§ Visibility from observer

Set your observer location to see the next 7 days of passes ≥ 10°. The values pass through the URL so the page stays shareable.

No JS? Fill the form by hand. The geolocation button needs JavaScript.